Regional Weather Roundup
Issued by NWS

Home | Current Version | Previous Version | Text Only | Print | Product List | Glossary Off
Versions: 1 2 3 4 5 6 7 8 9 10 11 12 13 14 15 16 17 18 19 20 21 22 23 24 25 26 27 28 29 30 31 32 33 34 35 36 37 38 39 40 41 42 43 44 45 46 47 48 49 50

000
ASUS43 KLOT 021658
RWRIL

ILLINOIS REGIONAL WEATHER ROUNDUP
NATIONAL WEATHER SERVICE CHICAGO/ROMEOVILLE IL
1200 PM CDT THU OCT 02 2014

NOTE: "FAIR" INDICATES FEW OR NO CLOUDS BELOW 12,000 FEET WITH NO
SIGNIFICANT WEATHER AND/OR OBSTRUCTIONS TO VISIBILITY.

* THESE STATIONS ARE NOT UNDER NWS QUALITY CONTROL. THEY ALSO MAY NOT
  REPORT WEATHER SUCH AS PRECIPITATION OR FOG.

ILZ001-002-007-009-015-016-024-021800-
NORTHWEST ILLINOIS

CITY           SKY/WX    TMP DP  RH WIND       PRES   REMARKS
MOLINE         CLOUDY    68  64  87 S3        29.81F
$$

ILZ003-004-008-010-011-017-018-021800-
NORTH CENTRAL ILLINOIS

CITY           SKY/WX    TMP DP  RH WIND       PRES   REMARKS
ROCKFORD       NOT AVBL
$$

ILZ005-006-012>014-019>023-021800-
NORTHEAST ILLINOIS

CITY           SKY/WX    TMP DP  RH WIND       PRES   REMARKS
CHICAGO-OHARE  CLOUDY    72  62  71 SW12      29.84F
CHICAGO-MIDWAY NOT AVBL
AURORA         CLOUDY    72  63  73 S13       29.85S
WAUKEGAN       PTSUNNY   69  62  78 SE9       29.81F
DUPAGE AIRPORT CLOUDY    72  64  76 S10       29.83F
WHEELING       PTSUNNY   74  63  68 S12       29.85F
NORTHERLY ISL    N/A     70  63  78 SE13        N/A
$$

LMZ740>746-021800-
SOUTHERN LAKE MICHIGAN

STATION/POSITION SKY/WX   TEMP    WIND        PRES    VSBY  WAVE
                          AIR SEA DIR/SP/G                  HT/PER
                          (F)     (DEG/KT/KT) (MB)    (MI)  (FT/S)
SOUTHERN BUOY              63 62  170/ 12/ 14 1011.4F         3/ 5
WAUKEGAN HARBOR            63     160/ 14/ 16   N/A
HARRISON CRIB              65     150/  8/ 10   N/A
BURNHAM HARBOR             68     130/  9       N/A
CALUMET HARBOR             68     160/  8/ 10 1009.8F
MICHIGAN CITY              67     150/  7/  9   N/A
MICHIGAN CITY 6N           66 64  160/ 10/ 12   N/A           0
ST. JOSEPH                 65 63  130/  4/  4   N/A           1
$$

ILZ025>027-034>036-040-047-049-050-058-095>099-021800-
WEST-CENTRAL ILLINOIS

CITY           SKY/WX    TMP DP  RH WIND       PRES   REMARKS
$$

ILZ028>032-037-038-041>044-048-051>054-059>061-021800-
CENTRAL ILLINOIS

CITY           SKY/WX    TMP DP  RH WIND       PRES   REMARKS
PEORIA         LGT RAIN  69  64  84 S10       29.86S
SPRINGFIELD    TSTM      69  67  93 W12       29.89R
TAYLORVILLE    NOT AVBL
$$

ILZ033-039-045-046-055>057-062-063-021800-
EAST-CENTRAL ILLINOIS

CITY           SKY/WX    TMP DP  RH WIND       PRES   REMARKS
$$

ILZ079-100>102-021800-
SOUTHWEST ILLINOIS

CITY           SKY/WX    TMP DP  RH WIND       PRES   REMARKS
ALTON          TSTM      68  66  94 NW14      29.91R
CAHOKIA*       CLOUDY    77  69  76 NW21G30   29.88R
$$

ILZ064>066-069>071-074>076-080>082-084>086-088>090-092>094-021800-
SOUTH-CENTRAL ILLINOIS

CITY           SKY/WX    TMP DP  RH WIND       PRES   REMARKS
CARBONDALE     PTSUNNY   83  70  64 S13G22    29.89S HX  87
MARION         PTSUNNY   84  70  61 S14       29.90F HX  88
$$

ILZ067-068-072-073-078-083-087-091-021800-
SOUTHEAST ILLINOIS

CITY           SKY/WX    TMP DP  RH WIND       PRES   REMARKS
$$

ABBREVIATIONS USED IN REMARKS
   TC - TEMPERATURE IN CELSIUS
  WCI - WIND CHILL INDEX
   HX - HEAT INDEX
  VSB - VISIBILITY
$$




USA.gov is the U.S. government's official web portal to all federal, state and local government web resources and services.